Location: Unspecified
(39.4120°N, 0.0000°E)
Time: 13:54:30
(UTC+00:00)

Hubble Space Telescope - Visible Passes

Search period start: 05 April 2026 00:00
Search period end: 15 April 2026 00:00
Orbit: 475 x 478 km, 28.5° (Epoch: 28 March)

Date Brightness Start Highest point End Pass type
(mag) Time Alt. Az. Time Alt. Az. Time Alt. Az.
7 Apr 3.0 04:53:21 10° S 04:54:23 11° SSE 04:55:25 10° SSE visible
8 Apr 3.0 04:22:18 10° S 04:23:20 11° SSE 04:24:21 10° SSE visible
9 Apr 3.0 03:52:23 11° SSE 03:52:23 11° SSE 03:53:15 10° SSE visible
10 Apr 2.6 04:57:57 10° SW 05:00:14 15° S 05:02:30 10° SE visible
11 Apr 2.6 04:27:32 12° SSW 04:29:07 15° S 04:31:24 10° SE visible
12 Apr 2.5 03:58:06 15° S 03:58:06 15° S 04:00:16 10° SE visible
13 Apr 3.1 03:28:41 12° SSE 03:28:41 12° SSE 03:29:08 10° SE visible
14 Apr 2.7 04:33:22 10° SW 04:34:45 12° SSW 04:36:11 10° S visible
